Vertical_Velocity
0 1 -1 -3 2 -2 -2 -0 4 -1 1 -2 -1 1 1 2 2 1 0 0 1 0 -1 1 1 2 2 0 -1 -3 -2 0 2 1 1 1 1 -0 1 0 -1 -1 -0 -1
-1 -2 -1 -0 1 -4 -1 2 5 1 -0 1 -1 1 2 1 2 1 1 2 2 3 3 3 1 -1 -3 -3 -1 -0 1 2 2 1 -0 -0 1 0 1 1 0 -0 -1 -0
2 -2 -5 3 -4 -1 2 6 2 4 2 2 -1 3 2 1 6 6 6 6 3 1 0 -1 -4 -3 -1 0 2 1 -1 1 1 -1 0 -1 -1 -0 -1 -1 -0 1 0 -0
-2 -3 1 -0 0 2 2 3 -1 4 3 1 0 3 4 11 8 4 -1 -2 -3 -3 -1 -0 1 1 1 1 1 2 1 0 -0 -1 -1 -1 -1 -0 -2 0 0 -0 -1 0
1 -0 -1 -0 -1 -1 -1 -1 -0 1 6 7 3 10 8 3 -0 0 -1 -2 -2 -1 -0 0 1 0 1 1 1 0 -0 -1 -2 -2 -1 -1 -0 -0 -1 1 -1 -1 -0 -0
-0 1 2 11 -2 -1 2 -2 -0 1 6 5 -1 0 -1 5 1 2 1 1 2 1 0 -0 -0 0 -1 -0 -1 -1 -0 -1 -1 -0 -0 0 0 0 -2 -0 0 0 -0 -1
-0 -0 1 9 -1 -0 0 0 0 2 0 1 1 1 1 -2 -1 -1 -2 -1 3 1 -1 -0 0 -1 -2 -1 0 -1 -1 -1 -0 -0 -0 -0 -1 -1 -1 0 -1 0 -1 0
0 -0 0 10 2 -5 5 6 3 1 -3 -2 -2 -1 -2 0 -1 0 2 -1 0 0 -1 -1 0 1 0 -1 -2 -1 -2 -2 -2 -1 -1 -1 -1 0 2 -0 -1 0 -1 -1
-0 -0 2 3 1 2 5 5 3 5 1 -1 -1 0 1 -2 -1 2 -0 2 1 0 -0 -1 -1 -1 -1 -2 -1 -1 -2 -2 -1 -0 -1 -0 1 1 0 -0 0 0 0 0
1 -1 -1 -0 -1 -1 -2 0 1 2 2 -2 -3 -5 -1 1 1 2 2 0 -1 -1 -1 -2 -2 -2 -2 -2 -2 -1 -1 -0 -1 -0 -0 0 1 -0 -0 -0 -0 -0 -0 -0
-0 -0 -1 -1 -2 -1 -2 -2 -0 1 1 1 1 1 1 0 0 0 -1 -1 -1 -1 -1 -1 -1 -1 -1 -2 -1 -1 -1 -1 -1 -0 -1 -1 -1 -1 -1 -1 -1 -1 -1 -2
-2 -1 -1 -2 -3 -3 -3 -2 -2 -1 -0 0 1 1 1 1 -1 -1 -1 -1 -1 -1 -1 -2 -2 -2 -1 -1 -1 -1 -0 -0 -1 -1 -1 -1 -1 -1 -1 -1 -1 -1 -1 -2
-3 -2 -1 -1 -1 -2 -2 -2 -2 -2 -2 -1 -1 0 1 0 1 -1 -1 -0 1 -1 -1 -1 -1 -1 -0 -0 -1 -1 -1 -1 -1 -1 -1 -1 -1 -1 -1 -2 -1 -2 -2 -2
-1 -2 -2 -0 -0 -0 -1 -1 -1 -1 -1 -2 -1 -0 0 0 -1 1 1 -1 -2 -0 0 -1 -1 -1 -1 -1 -1 -1 -0 -0 -0 -1 -1 -1 -1 -1 -1 -1 -2 -2 -1 -0
-0 -0 0 0 0 0 -0 0 -0 -1 -1 -1 -1 -1 -0 -1 1 1 -1 0 0 -0 -0 -0 -0 -1 -1 -1 -1 -0 -0 -1 -1 -1 -0 -0 -0 -1 -1 -1 0 -0 -0 0
-0 0 0 -0 -1 -1 -0 -0 -0 -1 -0 -0 -0 -0 -1 -2 -2 -1 -2 -1 0 2 -2 -2 -1 -1 -0 0 -0 -0 0 -0 -0 0 -0 0 -0 -0 -0 -0 -0 -1 -1 -2
0 1 1 1 -1 -1 -0 0 -0 -0 -0 -0 -0 0 0 0 0 0 0 -0 -2 -2 -1 -0 -0 1 1 1 -0 -1 -0 0 1 1 0 0 1 0 -1 0 0 -1 0 -1
-1 0 0 0 -0 -1 -0 0 -0 -0 -0 0 -1 -0 -1 -1 -1 -2 -0 -0 0 0 2 1 -0 1 -0 -0 -1 -0 1 0 1 1 -2 1 -1 -0 0 -1 -0 0 -0 -0
-1 -0 0 -0 0 0 -1 -1 0 1 0 1 1 0 1 1 -0 -1 -1 0 -0 0 4 -1 -2 1 2 0 -0 0 1 0 0 1 1 -1 0 -0 0 1 0 0 -0 -0
0 1 -0 -0 -0 0 1 -0 1 1 -2 2 1 1 1 0 -2 -1 -1 1 0 1 -4 1 0 3 1 -1 -1 0 1 0 -0 -0 0 0 1 0 0 0 -0 -1 -1 -0
0 -0 -0 -0 0 -2 0 -0 -0 1 -1 1 2 1 1 -1 1 0 1 2 6 -2 -2 -3 2 2 0 -0 -2 5 -0 0 1 1 0 0 0 0 0 0 -1 -1 -1 -1
0 -0 -0 0 0 -1 -2 -0 1 0 -0 -1 0 0 0 1 -0 0 1 3 -1 -2 1 0 1 0 1 -1 1 1 1 0 -0 -0 1 1 0 0 0 -1 -0 -1 -0 -0
-0 1 -0 -0 0 -0 -1 0 -0 1 -0 0 -0 -1 0 -0 -0 1 3 1 -1 -2 -1 1 2 -0 1 -2 3 -0 -0 -0 1 0 -0 -0 -0 0 0 1 0 0 0 -0
-1 -1 0 0 1 1 -1 -0 1 1 -1 -0 -0 0 0 -0 -0 0 0 -0 1 -0 1 2 0 2 -0 1 3 1 1 0 1 1 1 0 2 2 1 1 0 0 1 -1
-1 -2 -2 -0 -0 1 2 -0 -1 1 -1 -1 -1 -0 -0 0 -0 -2 0 0 0 0 2 1 1 0 0 2 2 0 -0 0 1 0 1 1 1 1 1 1 1 -0 -1 0
-1 -0 -1 0 -0 -1 0 0 -0 -0 -1 0 0 -0 1 0 0 -1 -1 0 1 1 1 -1 -1 -1 0 -0 -1 -0 0 1 -0 0 1 0 1 2 1 0 0 -0 -1 -0
-1 2 0 -1 2 1 1 0 -1 -0 1 1 1 0 0 1 1 -0 -0 1 1 1 1 1 0 -0 0 1 0 1 0 1 0 1 -1 3 1 1 0 -0 -1 -0 -0 -1
Height
2951 2950 2950 2950 2949 2948 2947 2947 2949 2950 2951 2952 2955 2958 2961 2965 2969 2974 2978 2982 2985 2989 2993 2997 3001 3006 3010 3013 3017 3021 3026 3030 3033 3036 3038 3041 3044 3046 3049 3051 3053 3055 3057 3059
2952 2952 2952 2952 2950 2949 2951 2950 2950 2950 2952 2954 2957 2961 2963 2967 2971 2975 2979 2983 2986 2990 2994 2998 3002 3005 3008 3012 3017 3021 3025 3028 3032 3035 3038 3040 3042 3044 3046 3048 3050 3052 3054 3056
2954 2953 2952 2952 2951 2951 2952 2952 2951 2953 2954 2955 2960 2963 2966 2970 2974 2978 2982 2985 2988 2991 2994 2998 3002 3005 3009 3013 3017 3021 3025 3028 3031 3033 3035 3038 3040 3042 3044 3045 3047 3049 3051 3052
2954 2952 2952 2955 2953 2952 2952 2952 2954 2955 2956 2959 2962 2965 2970 2974 2978 2980 2983 2986 2989 2992 2996 3000 3003 3007 3010 3014 3017 3020 3023 3026 3028 3030 3032 3034 3036 3038 3040 3042 3043 3045 3046 3048
2956 2955 2956 2956 2954 2953 2953 2956 2957 2958 2960 2962 2966 2970 2973 2976 2979 2982 2985 2988 2992 2995 2998 3001 3004 3007 3010 3013 3015 3018 3020 3022 3024 3027 3029 3031 3032 3034 3036 3037 3039 3040 3042 3043
2957 2956 2956 2958 2955 2954 2955 2958 2958 2960 2962 2964 2968 2972 2975 2977 2980 2983 2987 2989 2992 2995 2997 3000 3002 3005 3008 3011 3013 3015 3017 3019 3021 3023 3025 3026 3028 3030 3031 3033 3034 3035 3037 3038
2961 2960 2960 2958 2956 2956 2959 2965 2959 2961 2963 2965 2969 2972 2975 2978 2981 2983 2986 2989 2991 2994 2996 2999 3002 3005 3007 3009 3011 3013 3015 3016 3018 3019 3021 3022 3023 3025 3026 3028 3029 3031 3032 3033
2964 2963 2964 2958 2959 2961 2963 2961 2961 2962 2964 2966 2968 2971 2974 2977 2980 2983 2986 2989 2991 2994 2996 2998 3000 3002 3004 3006 3007 3009 3010 3012 3013 3015 3016 3017 3018 3019 3021 3022 3023 3024 3025 3026
2968 2968 2966 2964 2964 2964 2964 2965 2964 2966 2966 2967 2970 2972 2975 2978 2980 2982 2985 2987 2989 2992 2994 2996 2998 3000 3001 3002 3003 3004 3004 3005 3007 3008 3009 3011 3012 3014 3015 3016 3018 3019 3020 3020
2969 2968 2967 2967 2966 2966 2967 2967 2967 2968 2969 2971 2972 2973 2975 2978 2980 2982 2984 2986 2988 2990 2991 2993 2994 2995 2996 2997 2997 2998 2998 3000 3001 3002 3004 3005 3007 3008 3010 3011 3012 3013 3014 3015
2968 2966 2966 2965 2965 2966 2966 2967 2967 2968 2969 2970 2972 2973 2975 2976 2978 2980 2982 2984 2985 2986 2988 2989 2990 2991 2991 2992 2992 2993 2994 2995 2997 2998 3000 3001 3002 3004 3005 3006 3007 3008 3008 3009
2965 2964 2963 2962 2961 2961 2962 2963 2964 2965 2966 2968 2969 2971 2972 2974 2975 2977 2979 2980 2982 2983 2983 2984 2985 2986 2987 2987 2988 2990 2991 2992 2994 2995 2997 2998 2999 3000 3001 3002 3002 3003 3003 3004
2962 2960 2959 2958 2957 2957 2957 2957 2958 2960 2961 2962 2964 2965 2967 2969 2971 2972 2974 2976 2977 2977 2978 2980 2981 2982 2982 2984 2985 2986 2988 2990 2991 2992 2993 2994 2995 2996 2997 2997 2997 2998 2997 2997
2961 2960 2958 2957 2956 2955 2954 2954 2954 2954 2955 2956 2957 2959 2961 2963 2965 2967 2969 2969 2971 2973 2974 2976 2977 2978 2979 2980 2982 2983 2985 2986 2987 2988 2989 2989 2990 2990 2990 2991 2991 2991 2990 2990
2962 2961 2959 2958 2957 2956 2955 2954 2953 2952 2951 2951 2950 2951 2953 2956 2958 2960 2962 2965 2967 2969 2970 2971 2972 2974 2975 2977 2978 2979 2981 2981 2982 2983 2983 2983 2984 2984 2984 2984 2984 2983 2983 2983
2963 2961 2960 2959 2957 2956 2955 2954 2953 2952 2951 2950 2950 2950 2951 2953 2954 2956 2958 2961 2963 2965 2966 2967 2968 2969 2971 2972 2974 2975 2975 2976 2976 2977 2977 2977 2977 2978 2978 2977 2977 2976 2976 2975
2962 2960 2959 2958 2957 2956 2955 2954 2953 2952 2951 2951 2950 2950 2950 2951 2952 2953 2955 2956 2958 2959 2961 2962 2963 2965 2966 2967 2968 2969 2969 2970 2970 2970 2970 2970 2971 2971 2970 2970 2969 2968 2968 2967
2959 2957 2956 2954 2953 2952 2951 2951 2950 2949 2949 2949 2948 2948 2948 2949 2949 2950 2951 2952 2954 2955 2956 2957 2957 2959 2961 2961 2962 2962 2962 2963 2963 2963 2962 2963 2962 2962 2962 2961 2961 2960 2959 2958
2956 2954 2953 2951 2949 2948 2946 2944 2944 2943 2943 2943 2943 2943 2944 2944 2944 2945 2946 2947 2948 2949 2951 2951 2951 2952 2953 2954 2954 2954 2954 2954 2954 2954 2954 2954 2953 2953 2953 2952 2952 2951 2950 2949
2952 2950 2948 2946 2944 2941 2939 2937 2936 2935 2935 2935 2935 2936 2936 2936 2937 2938 2939 2940 2941 2942 2941 2943 2944 2945 2945 2945 2945 2946 2945 2945 2945 2945 2945 2945 2945 2944 2944 2944 2943 2942 2941 2940
2946 2944 2942 2939 2937 2934 2932 2930 2928 2926 2925 2925 2926 2926 2927 2927 2929 2930 2931 2933 2934 2933 2933 2934 2936 2936 2936 2936 2936 2937 2936 2936 2936 2935 2935 2935 2935 2935 2935 2934 2933 2932 2931 2929
2942 2938 2935 2933 2931 2927 2925 2923 2921 2918 2917 2916 2916 2916 2917 2918 2918 2920 2922 2924 2922 2923 2925 2926 2926 2926 2926 2925 2926 2927 2927 2926 2926 2926 2926 2926 2926 2926 2925 2924 2924 2922 2921 2919
2937 2933 2930 2927 2925 2922 2919 2917 2915 2913 2911 2910 2909 2908 2909 2909 2910 2912 2914 2914 2914 2914 2916 2917 2917 2917 2917 2916 2918 2917 2917 2917 2917 2917 2917 2917 2916 2916 2915 2914 2913 2911 2910 2908
2932 2929 2925 2922 2919 2916 2914 2912 2910 2908 2906 2904 2903 2902 2902 2902 2902 2904 2905 2905 2906 2907 2908 2909 2908 2908 2907 2908 2908 2908 2908 2908 2908 2908 2907 2907 2906 2905 2905 2904 2902 2901 2899 2897
2926 2923 2919 2916 2913 2911 2909 2907 2906 2904 2903 2901 2899 2898 2897 2897 2897 2897 2898 2898 2899 2899 2900 2900 2899 2899 2899 2900 2900 2900 2899 2899 2899 2898 2898 2897 2896 2895 2894 2893 2891 2889 2887 2885
2918 2915 2912 2910 2908 2906 2905 2903 2902 2901 2899 2898 2896 2895 2894 2894 2893 2892 2892 2892 2892 2892 2892 2892 2892 2892 2892 2892 2892 2892 2891 2890 2889 2889 2888 2887 2886 2885 2884 2882 2880 2878 2876 2874
2911 2908 2905 2904 2902 2901 2900 2899 2898 2897 2896 2894 2893 2892 2891 2890 2890 2889 2888 2888 2887 2887 2886 2886 2885 2885 2885 2884 2884 2883 2882 2881 2879 2878 2877 2876 2875 2874 2872 2870 2868 2867 2864 2862